Location: *
(43.4667°N, 11.6833°E)
Time: 19:46:19
(UTC+00:00)

ALOS 2 - Pass Details

Date: 19 July 2019
Orbit: 630 x 632 km, 97.9° (Epoch: 25 August)

Event Time Altitude Azimuth Distance (km) Brightness Sun altitude
Exits shadow 22:54:14 65° 293° (WNW) 700 2.8 -25.5°
Drops below altitude 10° 22:58:15 10° 342° (NNW) 2,023 6.2 -25.6°
Sets 23:00:28 0° 345° (NNW) 2,936 7.3 -25.6°
